41P/Tuttle-Giacobini-Kresak (1995)

Japanese version
Home page
Total 6,336 html files since Dec. 4, 1995
Updated on August 13, 1996

---------------------------------------------------------------------

* Profile

* Orbital Elements

  by Kenji Muraoka,
  from 47 observations  1978 Nov. 8 to 1995 Oct. 29,
  mean residual is  +/- 1.44 arc seconds.

      Epoch  =  1995 July 22.0  TT       JDT = 2449920.5
          T  =  1995 July 28.79942       +/- 0.00301 (m.e.) TT
       Peri. =   61.67948                +/- 0.00394
       Node  =  141.49755                +/- 0.00100   (2000.0)
       Incl. =    9.22520                +/- 0.00017
          q  =    1.0653123              +/- 0.0000050 AU
          e  =    0.6563638              +/- 0.0000010
          a  =    3.1001164              +/- 0.0000056 AU
          n  =    0.18056646             +/- 0.00000049
          P  =    5.458                  +/- 0.0000147  years
         A1  =   +1.212                  +/- 0.194
         A2  =   +0.05644                +/- 0.00136

* Finding Charts

* 1995 Jan. 3 - 1995 Aug. 11
* 1995 Aug. 11 - 1995 Dec. 29

* Magnitudes Graph

        m1 = 13.5 + 5 log d + 18.0 log r  [ ,0]  (             - 1995 July 28)
        m1 =  6.0 + 5 log d + 40.0 log r  [0, ]  (1995 July 28 -             )

---------------------------------------------------------------------

The orbital elements are calculated by Kenji Muraoka.
The charts are made with StellaNavigator Ver.2.0 for Windows (AstroArts / ASCII).
The magnitudes graphs are made with Comet for Windows.

---------------------------------------------------------------------

Copyright(C) 1995-2008 Seiichi Yoshida (comet@aerith.net). All rights reserved.